Location: *
(34.0486°S, 61.7880°E)
Time: 16:30:56
(UTC+00:00)

USA 215 - Pass Details

Date: 01 April 2020
Orbit: 1098 x 1110 km, 123.0° (Epoch: 20 May)

Event Time Altitude Azimuth Distance (km) Brightness Sun altitude
Rises 22:47:05 0° 72° (ENE) 3,930 6.7 -41.0°
Reaches altitude 10° 22:49:45 10° 80° (E) 2,978 6.0 -40.5°
Maximum altitude 22:55:40 37° 144° (SE) 1,664 4.4 -39.4°
Enters shadow 22:56:36 36° 162° (SSE) 1,710 4.4 -39.2°
